EW3708 Weather Reports


time (UTC)temp
C
wind
direction
speed
KPH
gust
KPH
rain 1hr
cm
rain 24hr
cm
rain mn
cm
humidity
%
barometer
mb
20260504044548 5 243 0.0 0.0 0.00 0.00 0.00 72 1012.9
20260504043047 5 243 0.0 0.0 0.00 0.00 0.00 72 1012.7
20260504041542 5 243 0.0 0.0 0.00 0.00 0.00 70 1012.6
20260504040041 5 243 0.0 0.0 0.00 0.00 0.00 66 1012.5
20260504034541 5 243 0.0 1.6 0.00 0.00 0.00 62 1012.4
20260504033038 6 243 0.0 1.6 0.00 0.00 0.00 61 1012.4
20260504031537 6 243 0.0 1.6 0.00 0.00 0.00 59 1012.4
20260504030041 7 243 0.0 1.6 0.00 0.00 0.00 59 1012.3
20260504024536 7 243 0.0 1.6 0.00 0.00 0.00 56 1012.4
20260504023035 7 243 0.0 4.8 0.00 0.00 0.00 54 1012.4
20260504021535 7 244 0.0 1.6 0.00 0.00 0.00 51 1012.4
20260504020037 7 244 0.0 3.2 0.00 0.00 0.00 51 1012.4
20260504014543 8 238 0.0 3.2 0.00 0.00 0.00 51 1012.3
20260504013034 8 238 0.0 3.2 0.00 0.00 0.00 50 1012.0
20260504011535 8 238 0.0 3.2 0.00 0.00 0.00 49 1012.1
20260504010033 9 238 0.0 4.8 0.00 0.00 0.00 48 1011.9
20260504004532 10 238 0.0 3.2 0.00 0.00 0.00 47 1011.8
20260504003031 10 238 0.0 3.2 0.00 0.00 0.00 44 1011.7
20260504001533 10 238 1.6 4.8 0.00 0.00 0.00 42 1011.5
20260504000030 11 238 3.2 8.0 0.00 0.00 0.00 40 1011.4
20260503234543 11 244 1.6 6.4 0.00 0.00 0.00 39 1011.2
20260503233031 11 282 4.8 9.7 0.00 0.00 0.00 38 1011.0
20260503231529 12 232 3.2 8.0 0.00 0.00 0.00 38 1011.1
20260503230040 12 201 1.6 8.0 0.00 0.00 0.00 37 1010.9
20260503224528 12 217 3.2 11.3 0.00 0.00 0.00 36 1010.9
20260503223028 12 227 4.8 12.9 0.00 0.00 0.00 35 1010.9
20260503221527 12 281 4.8 9.7 0.00 0.00 0.00 35 1010.9
20260503220042 12 247 3.2 9.7 0.00 0.00 0.00 34 1011.0
20260503214526 12 227 4.8 14.5 0.00 0.00 0.00 34 1010.8
20260503213025 12 240 6.4 14.5 0.00 0.00 0.00 34 1010.7
20260503211524 12 290 4.8 9.7 0.00 0.00 0.00 32 1010.6
20260503210023 12 314 4.8 16.1 0.00 0.00 0.00 33 1010.5
20260503204522 12 322 6.4 12.9 0.00 0.00 0.00 32 1010.4
20260503203029 12 294 3.2 12.9 0.00 0.00 0.00 31 1010.4
20260503201521 12 219 6.4 12.9 0.00 0.00 0.00 30 1010.6
20260503200019 12 230 6.4 12.9 0.00 0.00 0.00 29 1010.8
20260503194521 11 317 6.4 14.5 0.00 0.00 0.00 30 1010.8
20260503193017 12 194 4.8 12.9 0.00 0.00 0.00 30 1011.1
20260503191521 12 348 3.2 12.9 0.00 0.00 0.00 32 1011.2
20260503190017 11 293 3.2 14.5 0.00 0.00 0.00 34 1011.4
20260503184516 12 296 6.4 24.1 0.00 0.00 0.00 33 1011.7
20260503183017 11 152 6.4 16.1 0.00 0.00 0.00 33 1011.7
20260503181512 10 313 6.4 19.3 0.00 0.00 0.00 34 1011.9
20260503180017 11 329 6.4 16.1 0.00 0.00 0.00 35 1011.8
20260503174512 10 305 6.4 12.9 0.00 0.00 0.00 34 1012.0
20260503173011 11 318 6.4 14.5 0.00 0.00 0.00 34 1012.3
20260503171510 10 312 4.8 14.5 0.00 0.00 0.00 36 1012.1
20260503081510 2 32 1.6 6.4 0.00 0.03 0.00 71 1011.0
20260503071600 3 325 1.6 9.7 0.00 0.05 0.00 68 1011.0
20260503070106 3 282 3.2 6.4 0.00 0.05 0.00 67 1010.9